Flag for United Kingdom Weather past 2 weeks in Glasgow, Scotland, United Kingdom

Now
63 °F

Scattered clouds.


Feels Like: 63 °F
Forecast: 54 / 62 °F
Wind: 8 mph from Southeast

Location: Glasgow Airport

Current Time: Aug 2, 2015 at 4:27:04 PM

Latest Report: Aug 2, 2015 at 3:50 PM


Visibility: N/A

Pressure: 29.89 "Hg

Humidity: 73%

Dew point: 54 °F

Location of GlasgowLocation

Historic Weather in Glasgow — Graph

°F

Glasgow temperature yesterday

Maximum temperature yesterday: 59 °F (at 11:20 AM)
Minimum temperature yesterday: 43 °F (at 5:20 AM)
Average temperature yesterday: 53 °F

Past Weeks' High & Low Weather Summary

 TemperatureHumidityPressure
High64 °F (Jul 19, 4:50 PM)100% (Jul 19, 1:20 AM)30.09 "Hg (Jul 19, 1:20 AM)
Low41 °F (Jul 30, 5:20 AM)49% (Jul 30, 5:20 PM)29.42 "Hg (Jul 26, 10:50 PM)
Average54 °F82%29.79 "Hg
* Reported Jul 18 3:20 PM — Aug 2 3:20 PM, Glasgow, Weather by CustomWeather, © 2015

Note: Actual official high and low records may vary slightly from our data, if they occured in-between our weather recording intervals... More about our weather records

Advertising

Glasgow weather history for previous 24 hours

 ConditionsComfort  
Time TempWeatherWind HumidityBarometerVisibility
3:20 PM
Sun, Aug 2
63 °FLight rain. Broken clouds.9 mph73%29.92 "HgN/A
2:50 PM63 °FScattered clouds.12 mph68%29.92 "HgN/A
2:20 PM63 °FBroken clouds.9 mph73%29.92 "HgN/A
1:50 PM63 °FLight rain. Broken clouds.13 mph73%29.95 "HgN/A
1:20 PM61 °FPartly sunny.9 mph77%29.95 "HgN/A
12:50 PM61 °FMostly cloudy.7 mph83%29.95 "HgN/A
12:20 PM57 °FPartly sunny.5 mph94%29.95 "HgN/A
11:50 AM57 °FMore clouds than sun.6 mph94%29.95 "HgN/A
11:20 AM57 °FMostly cloudy.6 mph88%29.95 "Hg4 mi
10:50 AM57 °FLight rain. Partly sunny.6 mph88%29.98 "HgN/A
10:20 AM55 °FLight rain. Partly sunny.7 mph88%29.98 "HgN/A
9:50 AM55 °FPartly sunny.6 mph88%29.98 "HgN/A
9:20 AM54 °FPartly sunny.6 mph94%29.98 "HgN/A
8:50 AM52 °FPartly sunny.5 mph94%29.98 "HgN/A
8:20 AM52 °FLight rain. Partly sunny.5 mph94%29.98 "HgN/A
7:50 AM50 °FPartly sunny.3 mph94%29.98 "HgN/A
7:20 AM50 °FPartly sunny.2 mph94%29.95 "HgN/A
6:50 AM48 °FOvercast.2 mph100%29.95 "HgN/A
6:20 AM46 °FPassing clouds.2 mph100%29.95 "HgN/A
5:50 AM45 °FPassing clouds.1 mph93%29.95 "HgN/A
5:20 AM46 °FPassing clouds.1 mph93%29.95 "HgN/A
4:50 AM46 °FLight fog.2 mph100%29.95 "HgN/A
4:20 AM46 °FFog.2 mph93%29.95 "HgN/A
3:50 AM45 °FPassing clouds.2 mph100%29.95 "HgN/A
3:20 AM46 °FClear.1 mph100%29.95 "Hg10 mi
2:50 AM46 °FClear.3 mph100%29.95 "Hg10 mi
2:20 AM46 °FPassing clouds.2 mph93%29.95 "HgN/A
1:20 AM48 °FPassing clouds.2 mph94%29.95 "HgN/A
12:50 AM46 °FPassing clouds.6 mph93%29.92 "HgN/A
12:20 AM50 °FClear.5 mph88%29.92 "Hg10 mi
11:50 PM
Sat, Aug 1
50 °FClear.2 mph88%29.92 "Hg10 mi
11:20 PM48 °FClear.6 mph94%29.92 "Hg10 mi
10:20 PM52 °FSunny.12 mph88%29.92 "Hg10 mi
9:20 PM54 °FScattered clouds.12 mph82%29.89 "HgN/A
8:50 PM54 °FScattered clouds.10 mph88%29.89 "HgN/A
8:20 PM57 °FScattered clouds.14 mph72%29.86 "HgN/A
7:50 PM57 °FScattered clouds.10 mph77%29.86 "HgN/A
7:20 PM57 °FScattered clouds.14 mph72%29.83 "HgN/A
6:50 PM59 °FScattered clouds.15 mph68%29.83 "HgN/A
6:20 PM59 °FScattered clouds.12 mph72%29.83 "HgN/A
5:50 PM59 °FBroken clouds.13 mph68%29.83 "HgN/A
5:20 PM59 °FPartly sunny.13 mph72%29.83 "HgN/A
4:50 PM59 °FScattered clouds.14 mph72%29.83 "HgN/A
4:20 PM59 °FScattered clouds.15 mph72%29.83 "HgN/A
Weather by CustomWeather, © 2015

See weather overviewHow to use our weather pages